RH
47 45 50 56 62 64 63 61 58 60 52 51 55 59 57 51 45 39 34 26 23 23 29 27 27 27 28 38 41 48 52 43 40 42 31 32 49 52 67 67 66 68 60 65 63
47 48 50 55 62 71 68 66 66 55 39 49 50 53 66 57 51 43 36 31 24 30 34 29 28 31 32 38 46 55 53 39 28 29 37 40 49 52 72 73 71 69 70 77 68
47 47 50 57 57 70 75 69 68 62 47 49 47 50 67 58 49 36 35 32 37 39 37 32 33 37 41 40 45 50 50 42 40 36 42 50 51 56 71 80 69 67 74 74 70
48 50 48 50 57 63 62 72 68 57 53 46 50 50 67 58 48 40 43 43 43 43 41 39 39 44 48 48 44 52 40 49 42 46 47 46 49 62 69 70 69 66 71 76 71
41 45 50 49 55 57 72 75 69 58 52 50 57 51 66 55 49 49 50 52 47 42 41 42 44 48 53 53 53 53 37 40 43 48 50 51 50 54 63 74 77 78 76 76 75
37 42 42 48 52 58 63 70 60 62 63 61 66 53 62 58 51 49 45 48 44 44 46 48 50 53 56 57 61 55 52 47 43 42 50 53 44 58 50 71 81 75 74 80 72
29 31 45 43 53 61 60 61 68 78 64 64 64 55 66 54 51 45 42 41 46 50 55 59 63 67 65 62 63 62 63 58 52 43 50 52 52 52 47 65 81 77 76 79 77
30 27 38 41 52 58 56 64 69 77 73 67 60 64 69 57 45 42 46 55 58 58 63 70 76 81 75 65 60 65 73 68 42 45 40 61 52 39 50 66 79 80 83 89 86
30 24 29 43 48 61 62 60 67 68 60 58 64 68 67 48 45 47 54 55 57 65 71 79 84 87 88 72 70 64 65 67 50 47 44 58 53 49 58 65 81 82 88 88 88
32 29 25 42 49 67 59 67 71 82 72 67 68 73 59 49 48 55 59 53 59 73 74 81 87 89 85 92 94 85 88 83 70 46 50 58 64 69 61 74 75 85 87 90 92
33 31 32 37 47 60 68 64 62 66 82 68 58 66 60 57 54 61 59 54 59 70 75 81 91 93 90 94 94 95 96 84 67 56 52 62 76 79 73 77 79 86 84 86 87
36 33 38 53 52 59 69 64 70 84 79 70 69 63 60 61 61 65 62 59 63 69 75 81 84 83 90 98 98 90 95 95 94 67 74 71 84 89 92 95 96 97 90 84 81
37 39 39 58 59 57 78 73 78 77 75 64 65 61 60 62 65 73 66 64 68 72 73 80 73 84 91 98 98 97 95 91 98 88 75 76 86 88 85 87 92 93 93 87 82
43 42 39 53 60 52 78 67 72 69 76 74 68 61 64 64 71 75 77 72 84 82 81 86 81 84 85 96 96 90 79 86 85 83 98 91 93 86 86 84 89 84 86 85 84
56 52 44 56 59 50 65 84 85 82 91 72 73 60 63 68 71 76 80 90 92 96 93 76 85 83 94 98 93 81 71 84 89 89 88 90 78 79 82 87 83 82 81 84 87
63 63 62 51 60 54 70 85 87 79 88 80 67 61 65 70 73 80 89 97 98 96 92 77 81 95 89 88 88 90 87 90 89 87 92 91 78 78 87 83 78 78 73 79 89
92 71 73 74 71 63 82 94 91 93 71 76 63 57 60 69 76 86 94 99 94 90 85 81 85 88 83 86 83 86 81 94 95 89 89 91 91 79 75 77 72 76 74 80 90
85 65 74 73 75 68 83 97 93 73 68 65 57 55 60 66 77 81 94 93 88 88 88 89 81 83 80 82 80 77 79 84 89 92 95 93 94 80 77 76 74 73 76 82 86
98 70 69 72 68 78 92 96 79 70 63 66 52 52 57 67 78 87 94 94 90 93 97 92 84 83 81 82 83 94 87 74 81 82 83 81 78 77 77 75 77 77 79 81 87
80 77 71 71 79 83 98 90 78 69 63 54 49 49 56 72 78 82 92 98 98 93 95 97 95 85 86 91 85 87 80 79 84 84 94 82 72 76 74 72 71 74 80 85 84
85 78 85 81 83 97 93 88 81 64 65 54 52 57 63 71 76 83 92 91 93 88 86 81 81 91 83 86 85 73 74 66 65 70 75 76 69 68 67 67 71 70 73 75 77
88 89 87 95 98 97 96 80 63 69 70 60 53 62 66 70 75 82 87 90 83 82 81 76 82 89 84 80 77 76 67 58 57 57 59 58 58 59 67 72 68 70 69 69 69
84 90 98 98 98 97 84 66 67 70 66 61 59 59 61 69 72 75 81 79 77 74 73 71 76 84 82 74 75 73 68 61 55 54 57 55 55 54 58 61 63 60 62 64 63
85 94 98 98 97 90 74 62 69 69 66 59 60 56 62 67 66 71 72 71 70 70 67 63 68 63 68 65 68 67 65 59 55 59 57 52 55 54 55 56 57 59 60 57 56
91 96 95 98 97 73 63 65 67 70 65 58 56 56 61 64 64 68 65 63 61 62 60 61 67 65 64 64 63 63 63 60 58 56 55 50 52 55 56 59 60 60 60 59 58
90 92 91 97 86 61 59 63 67 68 64 59 55 54 55 57 57 59 56 52 53 50 57 56 66 62 63 59 58 60 60 60 58 58 58 57 57 60 64 67 70 68 65 63 63
89 90 74 62 63 53 61 65 64 65 64 58 55 51 54 55 54 55 55 52 53 53 53 55 59 60 62 55 53 55 55 58 60 59 57 58 58 62 63 67 68 70 71 70 69